owner,sensor,date,latitude,longitude,vertical_datum,wind_speed,wind_to_direction,wind_speed_of_gust,qcFlag 
TABS,ioos:station:wmo:42045:1,2015-04-01T00:00:00Z,26.2168,-96.4998,4.0,4.098023914,142.9346606,4.7,'11111222,11111222,11111222' 
TABS,ioos:station:wmo:42045:1,2015-04-01T00:30:00Z,26.2168,-96.4998,4.0,3.714256319,133.1456761,4.47,'11111222,11111222,11111222' 
TABS,ioos:station:wmo:42045:1,2015-04-01T01:00:00Z,26.2168,-96.4998,4.0,3.518081864,132.3506974,4.1,'11111222,11111222,11111222' 
TABS,ioos:station:wmo:42045:1,2015-04-01T01:30:00Z,26.2168,-96.4998,4.0,4.11830062,137.1650998,4.66,'11111222,11111222,11111222' 
TABS,ioos:station:wmo:42045:1,2015-04-01T02:00:00Z,26.2168,-96.4998,4.0,3.78382082,136.178191,4.49,'11111222,11111222,11111222' 
TABS,ioos:station:wmo:42045:1,2015-04-01T02:30:00Z,26.2168,-96.4998,4.0,3.629944903,132.8792243,4.14,'11111222,11111222,11111222' 
TABS,ioos:station:wmo:42045:1,2015-04-01T03:00:00Z,26.2168,-96.4998,4.0,3.542612031,134.8859533,4.2,'11111222,11111222,11111222' 
TABS,ioos:station:wmo:42045:1,2015-04-01T03:30:00Z,26.2168,-96.4998,4.0,3.572072228,133.525704,4.28,'11111222,11111222,11111222' 
TABS,ioos:station:wmo:42045:1,2015-04-01T04:00:00Z,26.2168,-96.4998,4.0,3.797709836,131.3707533,4.54,'11111222,11111222,11111222' 
TABS,ioos:station:wmo:42045:1,2015-04-01T04:30:00Z,26.2168,-96.4998,4.0,3.621739913,133.4340282,4.32,'11111222,11111222,11111222' 
TABS,ioos:station:wmo:42045:1,2015-04-01T05:00:00Z,26.2168,-96.4998,4.0,3.587547909,132.8541459,4.46,'11111222,11111222,11111222' 
TABS,ioos:station:wmo:42045:1,2015-04-01T05:30:00Z,26.2168,-96.4998,4.0,4.458250778,140.0960037,5.19,'11111222,11111222,11111222' 
TABS,ioos:station:wmo:42045:1,2015-04-01T06:00:00Z,26.2168,-96.4998,4.0,4.794006675,143.2260112,5.56,'11111222,11111222,11111222' 
TABS,ioos:station:wmo:42045:1,2015-04-01T06:30:00Z,26.2168,-96.4998,4.0,5.159844959,150.2553987,5.9,'11111222,11111222,11111222' 
TABS,ioos:station:wmo:42045:1,2015-04-01T07:00:00Z,26.2168,-96.4998,4.0,5.29797131,148.3502727,6.07,'11111222,11111222,11111222' 
TABS,ioos:station:wmo:42045:1,2015-04-01T07:30:00Z,26.2168,-96.4998,4.0,4.868346742,151.540101,5.63,'11111222,11111222,11111222' 
TABS,ioos:station:wmo:42045:1,2015-04-01T08:00:00Z,26.2168,-96.4998,4.0,4.870821286,152.4882722,5.88,'11111222,11111222,11111222' 
TABS,ioos:station:wmo:42045:1,2015-04-01T08:30:00Z,26.2168,-96.4998,4.0,4.768406442,154.6712396,5.48,'11111222,11111222,11111222' 
TABS,ioos:station:wmo:42045:1,2015-04-01T09:00:00Z,26.2168,-96.4998,4.0,4.946160127,159.4035396,6.04,'11111222,11111222,11111222' 
TABS,ioos:station:wmo:42045:1,2015-04-01T09:30:00Z,26.2168,-96.4998,4.0,4.663743132,173.1037826,5.31,'11111222,11111222,11111222' 
TABS,ioos:station:wmo:42045:1,2015-04-01T10:00:00Z,26.2168,-96.4998,4.0,5.923394297,167.8176568,6.63,'11111222,11111222,11111222' 
TABS,ioos:station:wmo:42045:1,2015-04-01T10:30:00Z,26.2168,-96.4998,4.0,6.869425012,164.2037904,8.34,'11111222,11111222,11111222' 
TABS,ioos:station:wmo:42045:1,2015-04-01T11:00:00Z,26.2168,-96.4998,4.0,7.394971264,173.0097525,8.95,'11111222,11111222,11111222' 
TABS,ioos:station:wmo:42045:1,2015-04-01T11:30:00Z,26.2168,-96.4998,4.0,4.314776935,165.6419366,5.37,'11111222,11111222,11111222' 
TABS,ioos:station:wmo:42045:1,2015-04-01T12:00:00Z,26.2168,-96.4998,4.0,5.174176263,149.321388,5.95,'11111222,11111222,11111222' 
TABS,ioos:station:wmo:42045:1,2015-04-01T12:30:00Z,26.2168,-96.4998,4.0,5.472494861,151.5151543,6.29,'11111222,11111222,11111222' 
TABS,ioos:station:wmo:42045:1,2015-04-01T13:00:00Z,26.2168,-96.4998,4.0,7.129544165,150.4148851,8.71,'11111222,11111222,11111222' 
TABS,ioos:station:wmo:42045:1,2015-04-01T13:30:00Z,26.2168,-96.4998,4.0,8.055463984,158.2120598,9.46,'11111222,11111222,11111222' 
TABS,ioos:station:wmo:42045:1,2015-04-01T14:00:00Z,26.2168,-96.4998,4.0,6.84853999,160.1100702,8.14,'11111222,11111222,11111222' 
TABS,ioos:station:wmo:42045:1,2015-04-01T14:30:00Z,26.2168,-96.4998,4.0,2.755721321,164.8545397,3.84,'11111222,11111222,11111222' 
TABS,ioos:station:wmo:42045:1,2015-04-01T15:00:00Z,26.2168,-96.4998,4.0,2.256235803,112.1318741,2.94,'11111222,11111222,11111222' 
TABS,ioos:station:wmo:42045:1,2015-04-01T15:30:00Z,26.2168,-96.4998,4.0,3.253997541,102.2427235,3.69,'11111222,11111222,11111222' 
TABS,ioos:station:wmo:42045:1,2015-04-01T16:00:00Z,26.2168,-96.4998,4.0,2.828427125,98.13050426,3.19,'11111222,11111222,11111222' 
TABS,ioos:station:wmo:42045:1,2015-04-01T16:30:00Z,26.2168,-96.4998,4.0,2.847630594,131.5837355,3.34,'11111222,11111222,11111222' 
TABS,ioos:station:wmo:42045:1,2015-04-01T17:00:00Z,26.2168,-96.4998,4.0,3.345504446,147.4502831,4.01,'11111222,11111222,11111222' 
TABS,ioos:station:wmo:42045:1,2015-04-01T17:30:00Z,26.2168,-96.4998,4.0,4.762992757,140.0253103,5.47,'11111222,11111222,11111222' 
TABS,ioos:station:wmo:42045:1,2015-04-01T18:00:00Z,26.2168,-96.4998,4.0,6.018936783,141.3404926,7.14,'11111222,11111222,11111222' 
TABS,ioos:station:wmo:42045:1,2015-04-01T18:30:00Z,26.2168,-96.4998,4.0,7.526925003,142.2321354,8.7,'11111222,11111222,11111222' 
TABS,ioos:station:wmo:42045:1,2015-04-01T19:00:00Z,26.2168,-96.4998,4.0,6.424095267,150.841721,7.4,'11111222,11111222,11111222' 
TABS,ioos:station:wmo:42045:1,2015-04-01T19:30:00Z,26.2168,-96.4998,4.0,6.359323863,148.6347835,7.37,'11111222,11111222,11111222' 
TABS,ioos:station:wmo:42045:1,2015-04-01T20:00:00Z,26.2168,-96.4998,4.0,5.454071873,143.4245435,6.3,'11111222,11111222,11111222' 
TABS,ioos:station:wmo:42045:1,2015-04-01T20:30:00Z,26.2168,-96.4998,4.0,5.374030145,135.1510934,6.23,'11111222,11111222,11111222' 
TABS,ioos:station:wmo:42045:1,2015-04-01T21:00:00Z,26.2168,-96.4998,4.0,4.645696934,135.0875236,5.3,'11111222,11111222,11111222' 
TABS,ioos:station:wmo:42045:1,2015-04-01T21:30:00Z,26.2168,-96.4998,4.0,4.453818586,131.9970973,5.06,'11111222,11111222,11111222' 
TABS,ioos:station:wmo:42045:1,2015-04-01T22:00:00Z,26.2168,-96.4998,4.0,4.271030321,131.6784249,4.89,'11111222,11111222,11111222' 
TABS,ioos:station:wmo:42045:1,2015-04-01T22:30:00Z,26.2168,-96.4998,4.0,4.090794544,129.6445032,4.74,'11111222,11111222,11111222' 
TABS,ioos:station:wmo:42045:1,2015-04-01T23:00:00Z,26.2168,-96.4998,4.0,5.042548959,130.576972,5.78,'11111222,11111222,11111222' 
TABS,ioos:station:wmo:42045:1,2015-04-01T23:30:00Z,26.2168,-96.4998,4.0,4.931987429,128.4968521,5.66,'11111222,11111222,11111222' 
TABS,ioos:station:wmo:42045:1,2015-04-02T00:00:00Z,26.2168,-96.4998,4.0,0.0,0.0,0.0,'11111222,11111222,11111222' 
TABS,ioos:station:wmo:42045:1,2015-04-02T00:30:00Z,26.2168,-96.4998,4.0,6.907068843,130.6556052,8.38,'11111222,11111222,11111222' 
TABS,ioos:station:wmo:42045:1,2015-04-02T01:00:00Z,26.2168,-96.4998,4.0,6.527702505,133.9451522,7.74,'11111222,11111222,11111222' 
TABS,ioos:station:wmo:42045:1,2015-04-02T01:30:00Z,26.2168,-96.4998,4.0,5.939764305,135.27315,7.12,'11111222,11111222,11111222' 
TABS,ioos:station:wmo:42045:1,2015-04-02T02:00:00Z,26.2168,-96.4998,4.0,6.010158068,140.5365005,7.1,'11111222,11111222,11111222' 
TABS,ioos:station:wmo:42045:1,2015-04-02T02:30:00Z,26.2168,-96.4998,4.0,5.694137336,141.5604967,6.45,'11111222,11111222,11111222' 
TABS,ioos:station:wmo:42045:1,2015-04-02T03:00:00Z,26.2168,-96.4998,4.0,5.065224575,140.5278429,5.89,'11111222,11111222,11111222' 
TABS,ioos:station:wmo:42045:1,2015-04-02T03:30:00Z,26.2168,-96.4998,4.0,4.745576888,145.9083886,5.56,'11111222,11111222,11111222' 
TABS,ioos:station:wmo:42045:1,2015-04-02T04:00:00Z,26.2168,-96.4998,4.0,4.266567707,145.1182866,4.89,'11111222,11111222,11111222' 
TABS,ioos:station:wmo:42045:1,2015-04-02T04:30:00Z,26.2168,-96.4998,4.0,4.470984232,149.1903693,5.1,'11111222,11111222,11111222' 
TABS,ioos:station:wmo:42045:1,2015-04-02T05:00:00Z,26.2168,-96.4998,4.0,5.139513596,152.2884643,5.91,'11111222,11111222,11111222' 
TABS,ioos:station:wmo:42045:1,2015-04-02T05:30:00Z,26.2168,-96.4998,4.0,5.729057514,152.8985097,6.7,'11111222,11111222,11111222' 
TABS,ioos:station:wmo:42045:1,2015-04-02T06:00:00Z,26.2168,-96.4998,4.0,5.921655174,152.6563256,6.76,'11111222,11111222,11111222' 
TABS,ioos:station:wmo:42045:1,2015-04-02T06:30:00Z,26.2168,-96.4998,4.0,6.256980102,154.1314173,7.11,'11111222,11111222,11111222' 
TABS,ioos:station:wmo:42045:1,2015-04-02T07:00:00Z,26.2168,-96.4998,4.0,6.239270791,154.2566081,7.39,'11111222,11111222,11111222' 
TABS,ioos:station:wmo:42045:1,2015-04-02T07:30:00Z,26.2168,-96.4998,4.0,6.400945243,158.3650704,7.58,'11111222,11111222,11111222' 
TABS,ioos:station:wmo:42045:1,2015-04-02T08:00:00Z,26.2168,-96.4998,4.0,6.368547715,153.9180384,7.43,'11111222,11111222,11111222' 
TABS,ioos:station:wmo:42045:1,2015-04-02T08:30:00Z,26.2168,-96.4998,4.0,6.423122294,155.8294636,7.41,'11111222,11111222,11111222' 
TABS,ioos:station:wmo:42045:1,2015-04-02T09:00:00Z,26.2168,-96.4998,4.0,5.992703897,155.6591774,6.73,'11111222,11111222,11111222' 
TABS,ioos:station:wmo:42045:1,2015-04-02T09:30:00Z,26.2168,-96.4998,4.0,5.865023444,159.1240654,6.63,'11111222,11111222,11111222' 
TABS,ioos:station:wmo:42045:1,2015-04-02T10:00:00Z,26.2168,-96.4998,4.0,5.748912941,156.1996864,6.44,'11111222,11111222,11111222' 
TABS,ioos:station:wmo:42045:1,2015-04-02T10:30:00Z,26.2168,-96.4998,4.0,5.898991439,153.9564714,6.78,'11111222,11111222,11111222' 
TABS,ioos:station:wmo:42045:1,2015-04-02T11:00:00Z,26.2168,-96.4998,4.0,5.82941678,151.8526284,6.93,'11111222,11111222,11111222' 
TABS,ioos:station:wmo:42045:1,2015-04-02T11:30:00Z,26.2168,-96.4998,4.0,5.474011326,153.0607454,6.24,'11111222,11111222,11111222' 
TABS,ioos:station:wmo:42045:1,2015-04-02T12:00:00Z,26.2168,-96.4998,4.0,5.179227742,152.6436221,5.69,'11111222,11111222,11111222' 
TABS,ioos:station:wmo:42045:1,2015-04-02T12:30:00Z,26.2168,-96.4998,4.0,5.037658186,151.8073641,5.78,'11111222,11111222,11111222' 
TABS,ioos:station:wmo:42045:1,2015-04-02T13:00:00Z,26.2168,-96.4998,4.0,5.254807323,148.699937,6.15,'11111222,11111222,11111222' 
TABS,ioos:station:wmo:42045:1,2015-04-02T13:30:00Z,26.2168,-96.4998,4.0,4.951383645,152.4519239,5.55,'11111222,11111222,11111222' 
TABS,ioos:station:wmo:42045:1,2015-04-02T14:00:00Z,26.2168,-96.4998,4.0,5.158614155,155.1242826,5.72,'11111222,11111222,11111222' 
TABS,ioos:station:wmo:42045:1,2015-04-02T14:30:00Z,26.2168,-96.4998,4.0,5.333216665,155.165101,6.01,'11111222,11111222,11111222' 
TABS,ioos:station:wmo:42045:1,2015-04-02T15:00:00Z,26.2168,-96.4998,4.0,5.438382112,152.8698222,6.28,'11111222,11111222,11111222' 
TABS,ioos:station:wmo:42045:1,2015-04-02T15:30:00Z,26.2168,-96.4998,4.0,4.682499333,152.9427208,5.19,'11111222,11111222,11111222' 
TABS,ioos:station:wmo:42045:1,2015-04-02T16:00:00Z,26.2168,-96.4998,4.0,4.522499309,154.7384584,5.4,'11111222,11111222,11111222' 
TABS,ioos:station:wmo:42045:1,2015-04-02T16:30:00Z,26.2168,-96.4998,4.0,3.454533254,148.0124828,3.93,'11111222,11111222,11111222' 
TABS,ioos:station:wmo:42045:1,2015-04-02T17:00:00Z,26.2168,-96.4998,4.0,3.258588652,148.5540481,3.81,'11111222,11111222,11111222' 
TABS,ioos:station:wmo:42045:1,2015-04-02T17:30:00Z,26.2168,-96.4998,4.0,3.359315406,141.5269492,3.79,'11111222,11111222,11111222' 
TABS,ioos:station:wmo:42045:1,2015-04-02T18:00:00Z,26.2168,-96.4998,4.0,2.604323329,139.8285411,3.04,'11111222,11111222,11111222' 
TABS,ioos:station:wmo:42045:1,2015-04-02T18:30:00Z,26.2168,-96.4998,4.0,2.411182283,139.3732367,2.94,'11111222,11111222,11111222' 
TABS,ioos:station:wmo:42045:1,2015-04-02T19:00:00Z,26.2168,-96.4998,4.0,2.698036323,142.8330929,3.06,'11111222,11111222,11111222' 
TABS,ioos:station:wmo:42045:1,2015-04-02T19:30:00Z,26.2168,-96.4998,4.0,2.663174797,140.3324621,2.96,'11111222,11111222,11111222' 
TABS,ioos:station:wmo:42045:1,2015-04-02T20:00:00Z,26.2168,-96.4998,4.0,2.340085469,127.3599268,2.8,'11111222,11111222,11111222' 
TABS,ioos:station:wmo:42045:1,2015-04-02T20:30:00Z,26.2168,-96.4998,4.0,2.711825953,129.9141059,3.07,'11111222,11111222,11111222' 
TABS,ioos:station:wmo:42045:1,2015-04-02T21:00:00Z,26.2168,-96.4998,4.0,3.311193138,133.0422528,3.66,'11111222,11111222,11111222' 
TABS,ioos:station:wmo:42045:1,2015-04-02T21:30:00Z,26.2168,-96.4998,4.0,3.593883693,133.1963248,4.25,'11111222,11111222,11111222' 
TABS,ioos:station:wmo:42045:1,2015-04-02T22:00:00Z,26.2168,-96.4998,4.0,3.594495792,123.4251539,4.23,'11111222,11111222,11111222' 
TABS,ioos:station:wmo:42045:1,2015-04-02T22:30:00Z,26.2168,-96.4998,4.0,3.711940193,116.9105603,4.37,'11111222,11111222,11111222' 
TABS,ioos:station:wmo:42045:1,2015-04-02T23:00:00Z,26.2168,-96.4998,4.0,3.622430124,116.56541,4.28,'11111222,11111222,11111222' 
TABS,ioos:station:wmo:42045:1,2015-04-02T23:30:00Z,26.2168,-96.4998,4.0,4.171378669,123.4618378,4.77,'11111222,11111222,11111222' 
TABS,ioos:station:wmo:42045:1,2015-04-03T00:00:00Z,26.2168,-96.4998,4.0,4.27018735,126.3335207,5.04,'11111222,11111222,11111222' 
TABS,ioos:station:wmo:42045:1,2015-04-03T00:30:00Z,26.2168,-96.4998,4.0,4.427572698,128.3974093,4.95,'11111222,11111222,11111222' 
TABS,ioos:station:wmo:42045:1,2015-04-03T01:00:00Z,26.2168,-96.4998,4.0,4.340840932,131.918859,5.06,'11111222,11111222,11111222' 
TABS,ioos:station:wmo:42045:1,2015-04-03T01:30:00Z,26.2168,-96.4998,4.0,3.99971249,132.2643751,4.56,'11111222,11111222,11111222' 
TABS,ioos:station:wmo:42045:1,2015-04-03T02:00:00Z,26.2168,-96.4998,4.0,4.384803302,138.4210257,5.08,'11111222,11111222,11111222' 
TABS,ioos:station:wmo:42045:1,2015-04-03T02:30:00Z,26.2168,-96.4998,4.0,5.087022705,140.5841003,5.74,'11111222,11111222,11111222' 
TABS,ioos:station:wmo:42045:1,2015-04-03T03:00:00Z,26.2168,-96.4998,4.0,5.650380518,141.4671826,6.6,'11111222,11111222,11111222' 
TABS,ioos:station:wmo:42045:1,2015-04-03T03:30:00Z,26.2168,-96.4998,4.0,6.45730594,150.4975226,7.53,'11111222,11111222,11111222' 
TABS,ioos:station:wmo:42045:1,2015-04-03T04:00:00Z,26.2168,-96.4998,4.0,5.901194794,151.7850073,6.62,'11111222,11111222,11111222' 
TABS,ioos:station:wmo:42045:1,2015-04-03T04:30:00Z,26.2168,-96.4998,4.0,6.255141885,155.2379227,7.31,'11111222,11111222,11111222' 
TABS,ioos:station:wmo:42045:1,2015-04-03T05:00:00Z,26.2168,-96.4998,4.0,5.971808771,152.1478955,6.9,'11111222,11111222,11111222' 
TABS,ioos:station:wmo:42045:1,2015-04-03T05:30:00Z,26.2168,-96.4998,4.0,5.988271871,153.7347478,6.71,'11111222,11111222,11111222' 
TABS,ioos:station:wmo:42045:1,2015-04-03T06:00:00Z,26.2168,-96.4998,4.0,6.85946062,156.9113518,8.01,'11111222,11111222,11111222' 
TABS,ioos:station:wmo:42045:1,2015-04-03T06:30:00Z,26.2168,-96.4998,4.0,6.710380019,161.4033005,7.73,'11111222,11111222,11111222' 
TABS,ioos:station:wmo:42045:1,2015-04-03T07:00:00Z,26.2168,-96.4998,4.0,6.498961455,162.2622977,8.0,'11111222,11111222,11111222' 
TABS,ioos:station:wmo:42045:1,2015-04-03T07:30:00Z,26.2168,-96.4998,4.0,6.611051354,162.9357526,7.57,'11111222,11111222,11111222' 
TABS,ioos:station:wmo:42045:1,2015-04-03T08:00:00Z,26.2168,-96.4998,4.0,6.505628332,163.5709474,7.56,'11111222,11111222,11111222' 
TABS,ioos:station:wmo:42045:1,2015-04-03T08:30:00Z,26.2168,-96.4998,4.0,7.873245836,166.634713,9.19,'11111222,11111222,11111222' 
TABS,ioos:station:wmo:42045:1,2015-04-03T09:00:00Z,26.2168,-96.4998,4.0,7.093074087,161.8462887,8.08,'11111222,11111222,11111222' 
TABS,ioos:station:wmo:42045:1,2015-04-03T09:30:00Z,26.2168,-96.4998,4.0,6.714231155,162.4018751,7.72,'11111222,11111222,11111222' 
TABS,ioos:station:wmo:42045:1,2015-04-03T10:00:00Z,26.2168,-96.4998,4.0,6.844800947,163.7099093,7.61,'11111222,11111222,11111222' 
TABS,ioos:station:wmo:42045:1,2015-04-03T10:30:00Z,26.2168,-96.4998,4.0,6.421853315,164.5573248,7.2,'11111222,11111222,11111222' 
TABS,ioos:station:wmo:42045:1,2015-04-03T11:00:00Z,26.2168,-96.4998,4.0,6.142808804,158.1122504,6.87,'11111222,11111222,11111222' 
TABS,ioos:station:wmo:42045:1,2015-04-03T11:30:00Z,26.2168,-96.4998,4.0,6.515903621,153.4745458,7.35,'11111222,11111222,11111222' 
TABS,ioos:station:wmo:42045:1,2015-04-03T12:00:00Z,26.2168,-96.4998,4.0,6.296769013,153.3945285,6.91,'11111222,11111222,11111222' 
TABS,ioos:station:wmo:42045:1,2015-04-03T12:30:00Z,26.2168,-96.4998,4.0,6.515926642,153.2779242,7.43,'11111222,11111222,11111222' 
TABS,ioos:station:wmo:42045:1,2015-04-03T13:00:00Z,26.2168,-96.4998,4.0,6.470270473,155.3364534,7.07,'11111222,11111222,11111222' 
TABS,ioos:station:wmo:42045:1,2015-04-03T13:30:00Z,26.2168,-96.4998,4.0,5.899593206,151.0022719,6.74,'11111222,11111222,11111222' 
TABS,ioos:station:wmo:42045:1,2015-04-03T14:00:00Z,26.2168,-96.4998,4.0,4.740643416,147.3158934,5.43,'11111222,11111222,11111222' 
TABS,ioos:station:wmo:42045:1,2015-04-03T14:30:00Z,26.2168,-96.4998,4.0,4.45028089,142.4866548,4.93,'11111222,11111222,11111222' 
TABS,ioos:station:wmo:42045:1,2015-04-03T15:00:00Z,26.2168,-96.4998,4.0,5.512204641,148.501735,6.41,'11111222,11111222,11111222' 
TABS,ioos:station:wmo:42045:1,2015-04-03T15:30:00Z,26.2168,-96.4998,4.0,5.512404194,156.3649364,6.13,'11111222,11111222,11111222' 
TABS,ioos:station:wmo:42045:1,2015-04-03T16:00:00Z,26.2168,-96.4998,4.0,5.012953221,149.2913462,5.63,'11111222,11111222,11111222' 
TABS,ioos:station:wmo:42045:1,2015-04-03T16:30:00Z,26.2168,-96.4998,4.0,5.301028202,149.1292077,6.03,'11111222,11111222,11111222' 
TABS,ioos:station:wmo:42045:1,2015-04-03T17:00:00Z,26.2168,-96.4998,4.0,4.973047355,153.2291228,5.63,'11111222,11111222,11111222' 
TABS,ioos:station:wmo:42045:1,2015-04-03T17:30:00Z,26.2168,-96.4998,4.0,5.250952295,156.9019665,5.94,'11111222,11111222,11111222' 
TABS,ioos:station:wmo:42045:1,2015-04-03T18:00:00Z,26.2168,-96.4998,4.0,4.624197228,153.5460446,5.21,'11111222,11111222,11111222' 
TABS,ioos:station:wmo:42045:1,2015-04-03T18:30:00Z,26.2168,-96.4998,4.0,3.866497123,144.0491847,4.39,'11111222,11111222,11111222' 
TABS,ioos:station:wmo:42045:1,2015-04-03T19:00:00Z,26.2168,-96.4998,4.0,4.43407262,129.3261025,5.17,'11111222,11111222,11111222' 
TABS,ioos:station:wmo:42045:1,2015-04-03T19:30:00Z,26.2168,-96.4998,4.0,4.500055555,125.1383883,5.18,'11111222,11111222,11111222' 
TABS,ioos:station:wmo:42045:1,2015-04-03T20:00:00Z,26.2168,-96.4998,4.0,4.847525142,130.0631677,5.63,'11111222,11111222,11111222' 
TABS,ioos:station:wmo:42045:1,2015-04-03T20:30:00Z,26.2168,-96.4998,4.0,5.551666416,131.9338374,6.43,'11111222,11111222,11111222' 
TABS,ioos:station:wmo:42045:1,2015-04-03T21:00:00Z,26.2168,-96.4998,4.0,5.191926425,129.6080849,5.77,'11111222,11111222,11111222' 
TABS,ioos:station:wmo:42045:1,2015-04-03T21:30:00Z,26.2168,-96.4998,4.0,4.835876343,132.0667944,5.85,'11111222,11111222,11111222' 
TABS,ioos:station:wmo:42045:1,2015-04-03T22:00:00Z,26.2168,-96.4998,4.0,4.658680071,128.8137975,5.36,'11111222,11111222,11111222' 
TABS,ioos:station:wmo:42045:1,2015-04-03T22:30:00Z,26.2168,-96.4998,4.0,5.107837116,120.079152,5.77,'11111222,11111222,11111222' 
TABS,ioos:station:wmo:42045:1,2015-04-03T23:00:00Z,26.2168,-96.4998,4.0,5.31096978,112.1223112,6.23,'11111222,11111222,11111222' 
TABS,ioos:station:wmo:42045:1,2015-04-03T23:30:00Z,26.2168,-96.4998,4.0,4.637510108,103.4672898,5.4,'11111222,11111222,11111222' 
TABS,ioos:station:wmo:42045:1,2015-04-04T00:00:00Z,26.2168,-96.4998,4.0,4.881444458,101.7016531,5.73,'11111222,11111222,11111222' 
TABS,ioos:station:wmo:42045:1,2015-04-04T00:30:00Z,26.2168,-96.4998,4.0,3.950506297,82.8745794,4.71,'11111222,11111222,11111222' 
TABS,ioos:station:wmo:42045:1,2015-04-04T01:00:00Z,26.2168,-96.4998,4.0,3.914792459,85.01717114,4.53,'11111222,11111222,11111222' 
TABS,ioos:station:wmo:42045:1,2015-04-04T01:30:00Z,26.2168,-96.4998,4.0,3.732894319,85.23594853,4.24,'11111222,11111222,11111222' 
TABS,ioos:station:wmo:42045:1,2015-04-04T02:00:00Z,26.2168,-96.4998,4.0,4.110985283,88.74513039,4.78,'11111222,11111222,11111222' 
TABS,ioos:station:wmo:42045:1,2015-04-04T02:30:00Z,26.2168,-96.4998,4.0,3.979208464,78.54848151,4.81,'11111222,11111222,11111222' 
TABS,ioos:station:wmo:42045:1,2015-04-04T03:00:00Z,26.2168,-96.4998,4.0,3.824617628,73.12818615,4.6,'11111222,11111222,11111222' 
TABS,ioos:station:wmo:42045:1,2015-04-04T03:30:00Z,26.2168,-96.4998,4.0,3.663686668,73.34531165,4.22,'11111222,11111222,11111222' 
TABS,ioos:station:wmo:42045:1,2015-04-04T04:00:00Z,26.2168,-96.4998,4.0,3.832140394,80.537279,4.49,'11111222,11111222,11111222' 
TABS,ioos:station:wmo:42045:1,2015-04-04T04:30:00Z,26.2168,-96.4998,4.0,4.269578434,101.7577345,5.2,'11111222,11111222,11111222' 
TABS,ioos:station:wmo:42045:1,2015-04-04T05:00:00Z,26.2168,-96.4998,4.0,3.774612563,97.76556878,4.42,'11111222,11111222,11111222' 
TABS,ioos:station:wmo:42045:1,2015-04-04T05:30:00Z,26.2168,-96.4998,4.0,3.665474048,101.6475366,4.1,'11111222,11111222,11111222' 
TABS,ioos:station:wmo:42045:1,2015-04-04T06:00:00Z,26.2168,-96.4998,4.0,2.877933286,82.010271,3.43,'11111222,11111222,11111222' 
TABS,ioos:station:wmo:42045:1,2015-04-04T06:30:00Z,26.2168,-96.4998,4.0,2.311579547,103.2551025,2.92,'11111222,11111222,11111222' 
TABS,ioos:station:wmo:42045:1,2015-04-04T07:00:00Z,26.2168,-96.4998,4.0,2.188172754,99.20444035,2.6,'11111222,11111222,11111222' 
TABS,ioos:station:wmo:42045:1,2015-04-04T07:30:00Z,26.2168,-96.4998,4.0,1.667363188,81.72370561,1.85,'11111222,11111222,11111222' 
TABS,ioos:station:wmo:42045:1,2015-04-04T08:00:00Z,26.2168,-96.4998,4.0,1.918462926,67.31084688,2.22,'11111222,11111222,11111222' 
TABS,ioos:station:wmo:42045:1,2015-04-04T08:30:00Z,26.2168,-96.4998,4.0,1.906462693,82.46453298,2.37,'11111222,11111222,11111222' 
TABS,ioos:station:wmo:42045:1,2015-04-04T09:00:00Z,26.2168,-96.4998,4.0,1.295414991,57.29100433,1.58,'11111222,11111222,11111222' 
TABS,ioos:station:wmo:42045:1,2015-04-04T09:30:00Z,26.2168,-96.4998,4.0,2.452039967,39.20690136,2.83,'11111222,11111222,11111222' 
TABS,ioos:station:wmo:42045:1,2015-04-04T10:00:00Z,26.2168,-96.4998,4.0,2.531442277,44.99968431,3.25,'11111222,11111222,11111222' 
TABS,ioos:station:wmo:42045:1,2015-04-04T10:30:00Z,26.2168,-96.4998,4.0,2.988042838,47.98395948,3.44,'11111222,11111222,11111222' 
TABS,ioos:station:wmo:42045:1,2015-04-04T11:00:00Z,26.2168,-96.4998,4.0,2.691115011,71.36269191,3.39,'11111222,11111222,11111222' 
TABS,ioos:station:wmo:42045:1,2015-04-04T11:30:00Z,26.2168,-96.4998,4.0,2.677106647,81.83922863,3.31,'11111222,11111222,11111222' 
TABS,ioos:station:wmo:42045:1,2015-04-04T12:00:00Z,26.2168,-96.4998,4.0,2.300543414,91.24578227,2.71,'11111222,11111222,11111222' 
TABS,ioos:station:wmo:42045:1,2015-04-04T12:30:00Z,26.2168,-96.4998,4.0,3.840963421,85.66952892,4.24,'11111222,11111222,11111222' 
TABS,ioos:station:wmo:42045:1,2015-04-04T13:00:00Z,26.2168,-96.4998,4.0,4.135698248,41.86333328,6.79,'11111222,11111222,11111222' 
TABS,ioos:station:wmo:42045:1,2015-04-04T13:30:00Z,26.2168,-96.4998,4.0,2.777516877,69.99889528,3.12,'11111222,11111222,11111222' 
TABS,ioos:station:wmo:42045:1,2015-04-04T14:00:00Z,26.2168,-96.4998,4.0,2.835930182,45.9997561,3.63,'11111222,11111222,11111222' 
TABS,ioos:station:wmo:42045:1,2015-04-04T14:30:00Z,26.2168,-96.4998,4.0,2.708228203,44.85008767,3.4,'11111222,11111222,11111222' 
TABS,ioos:station:wmo:42045:1,2015-04-04T15:00:00Z,26.2168,-96.4998,4.0,2.870139369,41.1856184,3.58,'11111222,11111222,11111222' 
TABS,ioos:station:wmo:42045:1,2015-04-04T15:30:00Z,26.2168,-96.4998,4.0,2.640549185,34.35177834,3.0,'11111222,11111222,11111222' 
TABS,ioos:station:wmo:42045:1,2015-04-04T16:00:00Z,26.2168,-96.4998,4.0,7.210339798,36.31335004,9.13,'11111222,11111222,11111222' 
TABS,ioos:station:wmo:42045:1,2015-04-04T16:30:00Z,26.2168,-96.4998,4.0,7.514572509,49.10065642,9.74,'11111222,11111222,11111222' 
TABS,ioos:station:wmo:42045:1,2015-04-04T17:00:00Z,26.2168,-96.4998,4.0,7.202777242,51.5386311,9.02,'11111222,11111222,11111222' 
TABS,ioos:station:wmo:42045:1,2015-04-04T17:30:00Z,26.2168,-96.4998,4.0,6.964402343,55.94450953,9.23,'11111222,11111222,11111222' 
TABS,ioos:station:wmo:42045:1,2015-04-04T18:00:00Z,26.2168,-96.4998,4.0,7.723846192,62.80426383,9.7,'11111222,11111222,11111222' 
TABS,ioos:station:wmo:42045:1,2015-04-04T18:30:00Z,26.2168,-96.4998,4.0,6.898702777,67.85892328,8.35,'11111222,11111222,11111222' 